Tracking 18980 objects as of 23-Feb-2018
HD Live streaming from Space Station
objects crossing your sky now

FENGYUN 1C DEB

Track FENGYUN 1C DEB now!
10-day predictions


NORAD ID: 40686
Int'l Code: 1999-025EWS
Perigee: 699.7 km
Apogee: 713.1 km
Inclination: 99.2 °
Period: 98.8 minutes
Semi major axis: 7077 km
RCS: Unknown
Launch date: May 10, 1999
Source: People's Republic of China (PRC)
Launch site: Taiyaun Space Center, China (TSC)

Note: This is SATELLITE DEBRIS
aabbcc
Your satellite tracking list
Your tracking list is empty




NASA's NSSDC Master Catalog

Two Line Element Set (TLE):
1 40686U 99025EWS 18044.04870333  .00003144  00000-0  69419-3 0  9998
2 40686  99.2448 343.2300 0009428 103.5518 256.6728 14.58118445166238
Source of the keplerian elements: AFSPC